FREGAT DEB, 45889

Orbit data source: Space-Track

FREGAT DEB, 45889 is space debris in LEO originally from a launch on Mon, 18 Jul 2011 UTC launched from the Tyuratam Missile And Space Complex (TTMTR). Debris objects in space refer to the collection of defunct objects orbiting the Earth. Examples of debris include non-operational satellites, rocket bodies, and fragments generated from explosions, collisions, or faulty payload assembly.

Loading next visibility...
Identifier
45889, 2011-037DJ
Orbit
LEO
Country
Flag of CISCIS
Related business
Manufacturer
Lavochkin
Mission
Spacecraft
Bus & Motor
Unknown
Mass
Unknown
Launch date (UTC)
2011-07-18 (14 years ago)
Launch vehicle
Unknown
Launch site
Tyuratam Missile And Space Complex (TTMTR)
Object type
Payload
Rocket body
Debris
Shape & HBR
Unknown shape, 0.1 m
Radar Cross Section
Small (<0.1 m²)

Expand to show TLE details & history
Last TLE update: 17 hours ago

TLE from 17 hours ago
0 FREGAT DEB
1 45889U 11037DJ  25303.88852064  .00168864  00000-0  16876-1 0  9992
2 45889  51.3342 165.6327 0759602 335.6069  21.0582 13.77011875231177
Epoch: 2025-10-30T21:19Z
TLE epoch observation values (Epoch: 2025-10-30T21:19:28.183Z)
Latitude
0.00002°
Longitude
166.32444°
Altitude
460.105 km
Speed
7.9 km/s
True Right ascension
11h 02m 31s
True Declination
0° 00' 00"
Sunlit
Object was in daylight at epoch
Visualization orbit readout
Latitude
Unknown
Longitude
Unknown
Altitude
Unknown
Speed
Unknown
Apparent Right ascension
Unknown
Apparent Declination
Unknown
Sunlit
N/A
Visualization observer readout
Local Sidereal Time
09:36:41
Azimuth
Unknown
Elevation
Unknown
Doppler factor
Unknown
Orbital elements
Apogee altitude
1,533.573 km
Perigee altitude
416.478 km
Semi-major axis
7,353.163 km
Eccentricity
0.07596
Inclination
51.3342°
RAAN
165.6327°
Arg. of periapsis
335.6069°
True anomaly
24.48651°
Mean anomaly
21.0582°
Eccentric anomaly
22.74058°
Mean motion
3.44217 °/min
Orbital period
104.59 mins
BSTAR
0.016876
Loading maneuver chart data...
Computing Atmospheric mass density...
Loading historical data...
Loading historical data...
Loading historical data...
Loading historical data...
Loading historical data...
Loading historical data...
Loading historical data...

Documentation

Showing up to 5 results
|